When you browse on this site, cookies collect data to enhance your experience and personalize the content and advertising you see.
Visit our Privacy Policy to learn more. By continuing to use the site, you agree to this use of cookies and data.
  • In Latvia
  • List of Countries
  • For 7 days
  • Water Temperature
  • Weather Map
  • Weather Widgets
  • user-avatar
    Login

    Hourly Weather Terekty

    Today, 28 May, Thursday

    Time Temperature Precipitation Wind Pressure Humidity
    00:00 +12°C° 0 mm 5 mps 705 mmHg 63%
    01:00 +10°C° 0 mm 5 mps 705 mmHg 62%
    02:00 +9°C° 0 mm 5 mps 706 mmHg 61%
    03:00 +10°C° 0 mm 4 mps 706 mmHg 60%
    04:00 +10°C° 0 mm 4 mps 706 mmHg 57%
    05:00 +10°C° 0 mm 4 mps 707 mmHg 55%
    06:00 +10°C° 0 mm 4 mps 707 mmHg 51%
    07:00 +12°C° 0 mm 3 mps 707 mmHg 44%
    08:00 +14°C° 0 mm 3 mps 708 mmHg 38%
    09:00 +17°C° 0 mm 2 mps 708 mmHg 31%
    10:00 +18°C° 0 mm 3 mps 708 mmHg 29%
    11:00 +20°C° 0 mm 3 mps 708 mmHg 27%
    12:00 +21°C° 0 mm 4 mps 707 mmHg 25%
    13:00 +22°C° 0 mm 4 mps 707 mmHg 24%
    14:00 +23°C° 0 mm 4 mps 707 mmHg 24%
    15:00 +25°C° 0 mm 5 mps 707 mmHg 23%
    16:00 +23°C° 0 mm 4 mps 707 mmHg 24%
    17:00 +23°C° 0 mm 4 mps 707 mmHg 25%
    18:00 +24°C° 0 mm 3 mps 707 mmHg 26%
    19:00 +21°C° 0 mm 3 mps 707 mmHg 31%
    20:00 +18°C° 0 mm 3 mps 707 mmHg 36%
    21:00 +16°C° 0 mm 3 mps 707 mmHg 41%
    22:00 +14°C° 0 mm 3 mps 707 mmHg 44%
    23:00 +13°C° 0 mm 3 mps 707 mmHg 46%

    Tomorrow, 29 May, Friday

    Time Temperature Precipitation Wind Pressure Humidity
    00:00 +12°C° 0 mm 3 mps 706 mmHg 49%
    01:00 +11°C° 0 mm 3 mps 706 mmHg 51%
    02:00 +11°C° 0 mm 3 mps 706 mmHg 54%
    03:00 +10°C° 0 mm 3 mps 706 mmHg 56%
    04:00 +11°C° 0 mm 3 mps 706 mmHg 57%
    05:00 +11°C° 0 mm 3 mps 706 mmHg 57%
    06:00 +13°C° 0 mm 2 mps 706 mmHg 57%
    07:00 +15°C° 0 mm 2 mps 706 mmHg 51%
    08:00 +16°C° 0 mm 2 mps 706 mmHg 45%
    09:00 +19°C° 0 mm 1 mps 706 mmHg 39%
    10:00 +20°C° 0 mm 2 mps 706 mmHg 36%
    11:00 +21°C° 0 mm 2 mps 706 mmHg 33%
    12:00 +23°C° 0 mm 2 mps 706 mmHg 30%
    13:00 +24°C° 0 mm 3 mps 706 mmHg 29%
    14:00 +25°C° 0 mm 3 mps 706 mmHg 28%
    15:00 +26°C° 0 mm 4 mps 706 mmHg 27%
    16:00 +25°C° 0 mm 4 mps 706 mmHg 29%
    17:00 +25°C° 0 mm 4 mps 706 mmHg 30%
    18:00 +25°C° 0 mm 4 mps 706 mmHg 31%
    19:00 +21°C° 0 mm 3 mps 706 mmHg 35%
    20:00 +18°C° 0 mm 2 mps 706 mmHg 39%
    21:00 +16°C° 0 mm 1 mps 706 mmHg 44%
    22:00 +15°C° 0 mm 1 mps 706 mmHg 45%
    23:00 +15°C° 0 mm 1 mps 705 mmHg 46%

    Day after tomorrow, 30 May, Saturday

    Time Temperature Precipitation Wind Pressure Humidity
    00:00 +14°C° 0 mm 1 mps 705 mmHg 48%
    01:00 +14°C° 0 mm 1 mps 705 mmHg 49%
    02:00 +13°C° 0 mm 1 mps 705 mmHg 50%
    03:00 +13°C° 0 mm 1 mps 705 mmHg 51%
    04:00 +14°C° 0 mm 1 mps 705 mmHg 51%
    05:00 +15°C° 0 mm 1 mps 705 mmHg 50%
    06:00 +16°C° 0 mm 1 mps 706 mmHg 50%
    07:00 +19°C° 0 mm 1 mps 706 mmHg 47%
    08:00 +20°C° 0 mm 1 mps 706 mmHg 43%
    09:00 +21°C° 0 mm 2 mps 706 mmHg 39%
    10:00 +23°C° 0 mm 2 mps 706 mmHg 36%
    11:00 +24°C° 0 mm 1 mps 706 mmHg 34%
    12:00 +25°C° 0 mm 1 mps 706 mmHg 31%
    13:00 +26°C° 0 mm 2 mps 706 mmHg 30%
    14:00 +27°C° 0 mm 2 mps 706 mmHg 29%
    15:00 +27°C° 0 mm 3 mps 706 mmHg 28%
    16:00 +27°C° 0 mm 3 mps 706 mmHg 30%
    17:00 +27°C° 0 mm 4 mps 706 mmHg 33%
    18:00 +27°C° 0 mm 5 mps 706 mmHg 36%
    19:00 +23°C° 0 mm 5 mps 706 mmHg 42%
    20:00 +21°C° 0 mm 4 mps 706 mmHg 48%
    21:00 +19°C° 0 mm 4 mps 706 mmHg 54%
    22:00 +18°C° 0 mm 4 mps 706 mmHg 56%
    23:00 +17°C° 0 mm 4 mps 706 mmHg 58%

    31 May, Sunday

    Time Temperature Precipitation Wind Pressure Humidity
    00:00 +15°C° 0 mm 4 mps 706 mmHg 60%
    01:00 +16°C° 0 mm 3 mps 706 mmHg 59%
    02:00 +16°C° 0 mm 3 mps 706 mmHg 59%
    03:00 +15°C° 0 mm 2 mps 706 mmHg 58%
    04:00 +16°C° 0 mm 2 mps 706 mmHg 57%
    05:00 +17°C° 0 mm 2 mps 707 mmHg 56%
    06:00 +18°C° 0 mm 2 mps 707 mmHg 55%
    07:00 +20°C° 0 mm 2 mps 707 mmHg 47%
    08:00 +23°C° 0 mm 2 mps 707 mmHg 40%
    09:00 +24°C° 0 mm 2 mps 707 mmHg 32%
    10:00 +25°C° 0 mm 3 mps 707 mmHg 29%
    11:00 +27°C° 0 mm 4 mps 707 mmHg 26%
    12:00 +28°C° 0 mm 5 mps 707 mmHg 23%
    13:00 +28°C° 0 mm 5 mps 707 mmHg 24%
    14:00 +28°C° 0 mm 5 mps 707 mmHg 25%
    15:00 +29°C° 0 mm 5 mps 706 mmHg 25%
    16:00 +28°C° 0 mm 5 mps 706 mmHg 28%
    17:00 +28°C° 0 mm 5 mps 706 mmHg 30%
    18:00 +27°C° 0 mm 4 mps 706 mmHg 33%
    19:00 +25°C° 0 mm 4 mps 706 mmHg 39%
    20:00 +21°C° 0 mm 3 mps 706 mmHg 45%
    21:00 +19°C° 0 mm 3 mps 706 mmHg 51%
    22:00 +18°C° 0 mm 3 mps 706 mmHg 51%
    23:00 +17°C° 0 mm 2 mps 706 mmHg 52%

    1 June, Monday

    Time Temperature Precipitation Wind Pressure Humidity
    00:00 +17°C° 0 mm 2 mps 706 mmHg 52%
    01:00 +16°C° 0 mm 2 mps 706 mmHg 51%
    02:00 +16°C° 0 mm 2 mps 706 mmHg 50%
    03:00 +16°C° 0 mm 2 mps 706 mmHg 49%
    04:00 +17°C° 0 mm 2 mps 706 mmHg 47%
    05:00 +18°C° 0 mm 2 mps 706 mmHg 46%
    06:00 +19°C° 0 mm 2 mps 706 mmHg 45%
    07:00 +22°C° 0 mm 1 mps 706 mmHg 40%
    08:00 +24°C° 0 mm 1 mps 706 mmHg 35%
    09:00 +26°C° 0 mm 1 mps 707 mmHg 30%
    10:00 +28°C° 0 mm 2 mps 707 mmHg 29%
    11:00 +29°C° 0 mm 2 mps 707 mmHg 28%
    12:00 +31°C° 0 mm 3 mps 707 mmHg 27%
    13:00 +32°C° 0 mm 4 mps 706 mmHg 26%
    14:00 +32°C° 0 mm 4 mps 706 mmHg 26%
    15:00 +33°C° 0 mm 5 mps 706 mmHg 26%
    16:00 +32°C° 0 mm 4 mps 706 mmHg 29%
    17:00 +32°C° 0 mm 4 mps 705 mmHg 31%
    18:00 +30°C° 0 mm 3 mps 705 mmHg 34%
    19:00 +28°C° 0 mm 3 mps 705 mmHg 38%
    20:00 +26°C° 0 mm 3 mps 705 mmHg 42%
    21:00 +22°C° 0 mm 3 mps 705 mmHg 47%
    22:00 +23°C° 0 mm 2 mps 704 mmHg 47%
    23:00 +21°C° 0 mm 2 mps 704 mmHg 47%

    2 June, Tuesday

    Time Temperature Precipitation Wind Pressure Humidity
    00:00 +21°C° 0 mm 2 mps 704 mmHg 47%
    01:00 +20°C° 0 mm 2 mps 704 mmHg 48%
    02:00 +20°C° 0 mm 2 mps 704 mmHg 50%
    03:00 +19°C° 0 mm 2 mps 703 mmHg 51%
    04:00 +20°C° 0 mm 2 mps 703 mmHg 50%
    05:00 +21°C° 0 mm 2 mps 704 mmHg 48%
    06:00 +24°C° 0 mm 2 mps 704 mmHg 46%
    07:00 +26°C° 0 mm 2 mps 704 mmHg 41%
    08:00 +27°C° 0 mm 2 mps 704 mmHg 36%
    09:00 +29°C° 0 mm 2 mps 704 mmHg 31%
    10:00 +30°C° 0 mm 3 mps 704 mmHg 28%
    11:00 +32°C° 0 mm 4 mps 704 mmHg 26%
    12:00 +33°C° 0 mm 5 mps 704 mmHg 23%
    13:00 +33°C° 0 mm 5 mps 704 mmHg 24%
    14:00 +34°C° 0 mm 6 mps 704 mmHg 24%
    15:00 +34°C° 0 mm 6 mps 704 mmHg 25%
    16:00 +33°C° 0 mm 6 mps 704 mmHg 28%
    17:00 +32°C° 0 mm 5 mps 704 mmHg 31%
    18:00 +30°C° 0 mm 5 mps 704 mmHg 35%
    19:00 +27°C° 0.4 mm 4 mps 704 mmHg 44%
    20:00 +23°C° 0.4 mm 4 mps 704 mmHg 54%
    21:00 +19°C° 0.4 mm 4 mps 704 mmHg 64%
    22:00 +19°C° 0 mm 4 mps 704 mmHg 62%
    23:00 +19°C° 0 mm 4 mps 704 mmHg 61%
    Show more